Погода Старая Русса

Хотите узнать прогноз погоды Старая Русса? Тогда Вам сюда: Погода Старая Русса

Поиск расширенной информации на нашем сайте:

Полезная информация:

Новости сайта



02.01.2020
Опубликован Долгосрочный прогноз погоды по городам России и ближнего зарубежья на январь 2020 года.
Карты: Прогноз на январь и февраль 2020 года, Сравнение прогнозируемой аномалии приземной температуры воздуха на январь 2020 года по разным моделям.




Погода Старая Русса - сегодня

Время (UTC), дата Ветер
(°,м/с) 
Видим.   Явления Облачность Т
(°С)
Тd
(°С)
f(%) Тe
(°С)
Pmin
(гПа)
dP
(гПа)
Po
(мм)
O2
(г/м3)
Тmin Tmax R s Состояние
почвы
09 16.01.21 350 (С) 20000 м    9/0 средняя 
[As trans]
-20.2 -22.8 80 -23  1016.8  760  332           
12 16.01.21 320 (СЗ) 20000 м    9/0 средняя 
[Ac trans]
-19.1 -21.7 80 -22  1016  -0.7  760  331           
15 16.01.21 340 (С) 20000 м    9/0 средняя 
[Ac trans]
-17.9 -20.4 81 -22  1015.5  -0.5  759  329           
18 16.01.21 330 (СЗ) 20000 м  {снег}  6/0 средняя 
[Ac trans]
-18.3 -20.3 84 -21  1015.8  0.3  759  330    -17.8  0.0     
21 16.01.21 350 (С) 20000 м    4/0 средняя 
[Ac trans]
-18.7 -20.9 83 -21  1016.7  0.9  760  330           
00 17.01.21 350 (С) 20000 м    ясно 
-22.4 -24.5 83 -23  1017.3  0.5  760  336           
03 17.01.21 тихо ()   20000 м    ясно 
-24.3 -26.4 83 -24  1017.7  0.4  761  338  -24.4    0.0     
06 17.01.21 тихо ()   20000 м    ясно 
-24.9 -27.2 81 -25  1018.3  0.6  761  339  -25.1      равномерный
сухой снег
100% 
09 17.01.21 210 (ЮЗ) 20000 м    8/0 средняя, верхняя 
[Ac trans|Ci fib]
-19 -21.3 82 -19  1019.4  1.1  762  332           
12 17.01.21 200 (Ю) 10 км  слаб. снег  10/8 600 м средняя 
[Sc|Ac As]
-15.4 -17.6 83 -15  1019.3  762  327           
15 17.01.21 200 (Ю) 10 км  слаб. снег  10/10 270 м 
[Frnb|Ns]
-13.7 -15.5 86 -16  1018.7  -0.6  762  324      0.0     
18 17.01.21 200 (Ю) 20000 м  {снег}  10/10 360 м 
[Sc]
-12.3 -13.6 90 -14  1018.5  -0.2  761  323    -12.3  0.0     
21 17.01.21 190 (Ю) 20000 м    10/10 180 м 
[St]
-11.1 -12.3 91 -11  1018.5  761  321           
00 18.01.21 200 (Ю) 20000 м    10/10 270 м 
[St]
-10.4 -11.5 92 -10  1017.8  -0.6  761  320           
03 18.01.21 170 (Ю) 4000 м  дымка  10/10 180 м 
[St]
-9.9 -11 92 -10  1017.6  -0.2  761  319  -13.6    0.0     
06 18.01.21 180 (Ю) 4000 м  дымка  10/10 120 м 
[St]
-9.7 -10.8 92 -11  1018  0.4  761  319  -12.3      равномерный
сухой снег
100% 
09 18.01.21 210 (ЮЗ) 10 км  слаб. снег  10/10 180 м 
[Frnb|Ns]
-8.9 -9.9 92 -9  1018.3  0.3  761  318           
12 18.01.21 160 (Ю) 20000 м  {снег}  10/10 150 м 
[St]
-8.1 -9 93 -8  1018.2  -0.1  761  317           
15 18.01.21 160 (Ю) 10 км  слаб. снег  10/10 150 м 
[St]
-8.6 -9.5 93 -8  1018.1  -0.1  761  318      0.5     
18 18.01.21 180 (Ю) 20000 м  {снег}  10/10 210 м 
[St]
-8.8 -9.7 93 -9  1017.9  -0.2  761  318    -8  0.5     
21 18.01.21 160 (Ю) 20000 м  {снег}  10/10 180 м 
[St]
-8.9 -9.8 93 -9  1018.1  0.2  761  318           
00 19.01.21 170 (Ю) 20000 м  {снег}  10/10 150 м 
[St]
-8.8 -9.7 93 -9  1017.6  -0.5  761  318           
03 19.01.21 160 (Ю) 20000 м  в посл. час снег  9/9 630 м 
[Sc]
-9.6 -10.7 92 -9  1017.1  -0.5  760  319  -9.6    0.3     
06 19.01.21 170 (Ю) 20000 м  {снег}  10/10 120 м 
[St]
-9 -9.9 93 -9  1017  -0.1  760  318  -9.8    0.3  равномерный
сухой снег
100% 
09 19.01.21 190 (Ю) 20000 м  в посл. час снег  10/0 средняя 
[Ac und]
-8 -8.9 93 -8  1017.1  0.1  760  317           
Время (UTC), дата Ветер
(°,м/с) 
Видим.   Явления Облачность Т
(°С)
Тd
(°С)
f(%) Тe
(°С)
Pmin
(гПа)
dP
(гПа)
Po
(мм)
O2
(г/м3)
Тmin Tmax R s Состояние
почвы

Для получения пояснительной информации подведите курсор к названию столбца.

ПОГОДА Старая Русса - архив

Всё, что Вы хотите узнать о погоде Старая Русса - удобно и подробно!

Выберите нужную дату (начиная с 1 января 2019* года) и нажмите кнопку "Найти".
Будут отображены архивные сводки погоды по пункту Старая Русса, начиная с указанной даты.


Отображать данные в формате CSV (для использования в таблицах Excel)


Внимание! Наш архив погоды предназначен исключительно для личного некоммерческого использования в познавательных целях. Если Вам необходимы официальные справки о состоянии погоды (для производственных, юридических, коммерческих и т.п. целей), обращайтесь в органы Росгидромета.

*Примечание: данная дата относится к архиву по метеостанциям СССР (Россия, СНГ, Балтия).
Архив по метеостанциям Зарубежной Европы и Азии (кроме Китая) хранится 10 дней, по другим регионам земного шара (Китай, Африка, Америка, Австралия, Океания) - 1 день.

Старая Русса - район местоположения метеостанции


Название, широта, долгота, высота метеостанции:
Старая Русса 58°ш. 31.3°д. 25 м над ур. моря [Российская Федерация]

Дополнительная информация

В oтличие oт бoльшинства пoгoдных сайтoв мы публикуем пoдрoбную метеoинфoрмацию в детальнoм прoфессиoнальнoм фoрмате.

Характеристики температуры и влажнoсти вoздуха измеряются на высoте 2 м в тени вдали oт зданий и деревьев.
Скoрoсть ветра измеряется на высoте 10 м (на урoвне рoста челoвека скoрoсть ветра ниже в 1.5-2 раза). Если метеoстанция нахoдится в гoрoде или в лесу, тo скoрoсть ветра занижена на 2-4 м/с пo сравнению с oткрытым местoм. Скoрoсть ветра над акватoриями крупных рек и oзёр, а также на вершинах хoлмoв на 2-5 м/с выше, чем в oбычных услoвиях.
Атмoсфернoе давление в разных тoчках местнoсти мoжет значительнo oтличаться oт давления на метеoстанции, в зависимoсти oт услoвий рельефа (при пoдъёме на 10 м давление пoнижается примернo на 1 мм рт.ст.).